TimeCST,TemperatureF,Dew PointF,Humidity,Sea Level PressureIn,VisibilityMPH,Wind Direction,Wind SpeedMPH,Gust SpeedMPH,PrecipitationIn,Events,Conditions,WindDirDegrees,DateUTC
12:52 AM,21.9,19.9,92,30.21,3.0,SSE,16.1,-,N/A,,Overcast,160,2013-02-08 06:52:00
1:47 AM,21.2,19.4,93,30.11,2.5,SE,15.0,-,N/A,,Overcast,140,2013-02-08 07:47:00
1:52 AM,21.0,19.9,96,30.19,3.0,SSE,17.3,-,N/A,,Overcast,150,2013-02-08 07:52:00
2:00 AM,21.2,19.4,93,30.11,2.5,SSE,18.4,-,N/A,,Overcast,160,2013-02-08 08:00:00
2:08 AM,21.2,19.4,93,30.11,3.0,SSE,16.1,-,N/A,,Overcast,160,2013-02-08 08:08:00
2:39 AM,21.2,19.4,93,30.11,2.5,SSE,16.1,-,N/A,,Overcast,150,2013-02-08 08:39:00
2:52 AM,21.9,19.9,92,30.18,2.5,SSE,16.1,-,N/A,,Overcast,160,2013-02-08 08:52:00
3:04 AM,21.2,19.4,93,30.11,4.0,SSE,17.3,-,N/A,,Overcast,160,2013-02-08 09:04:00
3:52 AM,21.9,19.9,92,30.16,4.0,SSE,17.3,-,N/A,,Overcast,150,2013-02-08 09:52:00
4:52 AM,21.9,19.9,92,30.14,4.0,SE,13.8,-,N/A,,Overcast,140,2013-02-08 10:52:00
5:52 AM,21.9,19.9,92,30.12,7.0,SE,18.4,24.2,N/A,,Overcast,140,2013-02-08 11:52:00
6:52 AM,21.9,19.9,92,30.10,7.0,SE,18.4,-,N/A,,Overcast,140,2013-02-08 12:52:00
7:52 AM,21.9,21.0,96,30.08,9.0,SSE,17.3,-,N/A,,Overcast,150,2013-02-08 13:52:00
8:52 AM,23.0,21.0,92,30.07,6.0,SE,18.4,-,N/A,,Overcast,140,2013-02-08 14:52:00
9:52 AM,24.1,21.9,91,30.06,8.0,SSE,18.4,23.0,N/A,,Overcast,150,2013-02-08 15:52:00
10:20 AM,24.8,23.0,93,29.98,9.0,SSE,18.4,-,N/A,,Overcast,150,2013-02-08 16:20:00
10:52 AM,26.1,24.1,92,30.05,9.0,SSE,18.4,-,N/A,,Overcast,150,2013-02-08 16:52:00
11:52 AM,28.0,25.0,88,30.04,10.0,SSE,16.1,-,N/A,,Overcast,160,2013-02-08 17:52:00
12:20 PM,28.4,24.8,86,29.94,10.0,SSE,16.1,-,N/A,,Overcast,150,2013-02-08 18:20:00
12:52 PM,30.0,26.1,85,30.00,10.0,SSE,16.1,-,N/A,,Overcast,150,2013-02-08 18:52:00
1:52 PM,32.0,27.0,82,29.96,10.0,SE,17.3,-,N/A,,Overcast,140,2013-02-08 19:52:00
2:17 PM,33.8,28.4,81,29.88,10.0,SE,15.0,-,N/A,,Overcast,140,2013-02-08 20:17:00
2:52 PM,33.1,28.0,82,29.94,10.0,SE,13.8,-,N/A,,Overcast,140,2013-02-08 20:52:00
3:52 PM,35.1,28.9,78,29.93,10.0,SE,12.7,-,N/A,,Mostly Cloudy,140,2013-02-08 21:52:00
4:02 PM,33.8,28.4,81,29.87,10.0,SE,11.5,-,N/A,,Scattered Clouds,140,2013-02-08 22:02:00
4:52 PM,34.0,28.9,82,29.92,10.0,ESE,10.4,-,N/A,,Partly Cloudy,110,2013-02-08 22:52:00
5:52 PM,32.0,28.0,85,29.92,10.0,East,10.4,-,N/A,,Clear,90,2013-02-08 23:52:00
6:52 PM,30.0,27.0,88,29.92,10.0,East,9.2,-,N/A,,Clear,80,2013-02-09 00:52:00
7:52 PM,28.0,26.1,92,29.92,7.0,East,10.4,-,N/A,,Clear,80,2013-02-09 01:52:00
8:52 PM,27.0,25.0,92,29.93,8.0,ENE,8.1,-,N/A,,Clear,60,2013-02-09 02:52:00
9:52 PM,26.1,24.1,92,29.92,5.0,NE,10.4,-,N/A,,Clear,50,2013-02-09 03:52:00
10:52 PM,25.0,23.0,92,29.92,4.0,NE,8.1,-,N/A,,Clear,40,2013-02-09 04:52:00
11:21 PM,24.8,23.0,93,29.84,4.0,NNE,6.9,-,N/A,,Mostly Cloudy,30,2013-02-09 05:21:00
11:32 PM,24.8,23.0,93,29.83,4.0,NNE,8.1,-,N/A,,Overcast,30,2013-02-09 05:32:00
11:49 PM,26.6,24.8,93,29.83,4.0,NNE,6.9,-,N/A,,Overcast,30,2013-02-09 05:49:00
11:52 PM,26.1,24.1,92,29.90,4.0,NE,5.8,-,N/A,,Overcast,40,2013-02-09 05:52:00